Location: *
(51.8167°N, 12.5000°E)
Time: 00:00:04
(UTC+00:00)

Cosmos 1626 Rocket - Pass Details

Date: 16 September 2019
Orbit: 602 x 632 km, 82.5° (Epoch: 15 October)

Event Time Altitude Azimuth Distance (km) Brightness Sun altitude
Rises 19:56:25 0° 349° (NNW) 2,877 7.7 -22.7°
Reaches altitude 10° 19:58:39 10° 349° (NNW) 1,966 6.8 -23.0°
Maximum altitude 20:03:00 87° 260° (W) 612 3.4 -23.5°
Enters shadow 20:03:11 82° 196° (SSW) 617 3.4 -23.5°
